cliquez pour ajouter le site Runraid à vos favoris  English version (google)  Retour à l'accueil Ecrire à l'auteur du site Runraid : Michel Jourdan



Les prochaines courses


Les derniers résultats

cliquez pour visualiser la page complète relatant la chronologie des éruptions du Piton de la Fournaise
éruptions Piton de la Fournaise


Ile de La Réunion

 Diagonale des Fous 

Ecrire au créateur du site : Michel Jourdan
Contact


2014-06-07 - Urban Trail de la Possession

Pour consulter le palmarès d'un coureur, un clic sur son nom !

Vous avez des remarques, corrections, ... sur ces résultats , un clic sur --> pour me transmettre toute information concernant les classements


Urban Trail de la Possession - 2014 : classement des 134 finishers
Place Nom Temps Cat. Club Sexe Clt/cat.
Place Nom Temps Cat. Club Sexe Clt/cat.
1 CADET JEAN MARIE 00:58:09 SEM - M 919
2 PAYET JEAN PATRICE 00:58:13 V1M - M 1 V1M 1606
3 NARAYANIN EDDY 00:58:36 SEM CAPOSS M 2 SEM 1604
4 PERRAULT Gerry 01:00:27 V1M - M 2 V1M 998
5 TRULES GERALDO 01:00:43 SEM ACSP M 3 SEM 992
6 AUGUSTINE GUYTO 01:01:43 V1M - M 3 V1M 905
7 SANTOULANGUE Miguel 01:03:45 SEM - M 4 SEM 986
8 SOUDJAOUMA JEAN FRANCOIS 01:04:19 V1M - M 4 V1M 988
9 CUCCO Francesco 01:04:26 SEM - M 5 SEM 926
10 MARTINEZ Rafael 01:04:45 SEM - M 6 SEM 1594
11 DUBIN BENOIT 01:05:06 SEM ACSP M 7 SEM 929
12 VIDOT YANNICK 01:05:07 SEM BNA M 8 SEM 995
13 CHARLETTINE ALEXANDRE 01:05:18 ESM A.C.B M 1 ESM 921
14 FLORUS JEAN PATRICK 01:06:26 V1M CAPOSS M 5 V1M 1564
15 TALIMBOLA JEAN BENOIT 01:06:46 V1M CAPOSS M 6 V1M 1557
16 GIBRALTA CHARLES ALFRED 01:06:55 V1M CAPC M 7 V1M 945
17 FELD SYLVAIN 01:08:20 V1M - M 8 V1M 1482
18 VALIN JOHNY 01:08:43 SEM - M 9 SEM 1588
19 FELICITE JEAN FRANCOIS 01:08:55 SEM COSPI M 10 SEM 933
20 COURTEAUD olivier 01:09:17 SEM - M 11 SEM 925
21 STROPPOLO walter 01:09:38 V1M - M 9 V1M 989
22 POULBASIA ELVIS 01:09:43 SEM - M 12 SEM 1608
23 SAMBENOUN MARCELIN 01:09:43 V2M C.A.S.S. M 1 V2M 1598
24 LIBELLE MARTININ 01:09:54 V1M - M 10 V1M 1603
25 MAILLOT JEAN DANY 01:10:19 SEM - M 13 SEM 1587
26 ELLAMA ROLAND 01:10:51 V2M - M 2 V2M 930
27 NATIVEL LAURENT 01:10:53 SEM CASL M 14 SEM 973
28 MOUGEY LUC 01:11:17 V1M DENIV M 11 V1M 971
29 LEBON STEPHANE YVES 01:11:31 SEM RUN O2 974 M 15 SEM 962
30 JACQUENET JOHN 01:11:40 SEM CALS SUD M 16 SEM 955
31 GRONDIN DIDIER 01:11:46 V1M RUN'A M 12 V1M 947
32 GRONDIN RENE CLAUDE 01:11:52 V2M AVALASSE M 3 V2M 949
33 MAILLOT DAVID 01:11:54 ESM CAPOSS M 2 ESM 1585
34 MAREUX EUGENIE 01:11:58 SEF CAPC F 1ere F 969
35 FIERLA Jean Marc 01:12:48 V1M - M 13 V1M 934
36 MOULIN SYLVIE 01:13:01 V1F - F 2eme F 972
37 POTHIN ALAIN 01:14:34 SEM CAPC M 17 SEM 1461
38 GONNEAU FREDDY 01:14:34 SEM - M 18 SEM 1182
39 LOWINSKI NICOLAS 01:15:36 SEM CAPOSS M 19 SEM 1554
40 ABBEZZOT JEAN LUC 01:15:58 SEM - M 20 SEM 900
41 LOMBARD Christophe 0,0527777777777778 V1M - M 14 V1M 964
42 GUYOT Daniel V2M - M 4 V2M 950
43 TURPIN BERTRAND 01:16:08 SEM - M 21 SEM 993
44 ECLAPIER JEAN CLAUDE 01:16:10 V2M C.A.S.S. M 5 V2M 1599
45 MOMBRUN SEBASTIEN 01:16:26 SEM - M 22 SEM 970
46 GUICHARD Gilles 01:17:12 V2M - M 6 V2M 1523
47 SINATA Jeremy 01:18:29 SEM - M 23 SEM 1607
48 ELLAMA Nicolas 01:19:31 SEM - M 24 SEM 1521
49 MAILLOT SERGES 01:20:12 V2M - M 7 V2M 967
50 OULIA LAURENT 01:20:25 SEM - M 25 SEM 975
51 THAZAR FABIEN 01:20:38 ESM - M 3 ESM 1480
52 CORALIN REGIS 01:21:07 V2M - M 8 V2M 922
53 LASTOUILLAT JEANNICK 01:21:24 V2M - M 9 V2M 1609
54 BERBICHE ABDELKRIM 01:22:57 V2M - M 10 V2M 911
55 PARASSOURAMIN PASCAL 01:23:03 SEM AC ENTENTE M 26 SEM 976
56 THEVENIN SULLY 01:23:32 V1M - M 15 V1M 991
57 FRANCOISE Jacky 01:23:54 V1M - M 16 V1M 939
58 SALING MATHIEU 01:24:03 SEM - M 27 SEM 999
59 LE TENNIER SYLVIE 01:24:24 V2F CAPOSS F 3eme F 961
60 HUET jean paul 01:24:44 V1M - M 17 V1M 952
61 BOUQUEREL JEROME 01:24:57 V1M - M 18 V1M 915
62 GARDENAT EMERIC 01:25:13 V1M - M 19 V1M 942
63 BARDET Romain 01:25:39 SEM - M 28 SEM 909
64 DESCOMBES JEAN MARC 01:26:03 SEM - M 29 SEM 927
65 HUBERT BERNARD 01:26:12 V2M CAPOSS M 11 V2M 1596
66 VITOU Jean Roch 01:27:22 SEM - M 30 SEM 996
67 GRONDIN Pascal 01:27:45 V1M - M 20 V1M 948
68 HOAREAU Guillaume 01:27:47 ESM - M 4 ESM 1593
69 MAILLOT MARIE LISE 01:28:11 V2F - F 2 V2F 966
70 ALICALAPA JEAN DENIS 01:28:30 V2M CAPP M 12 V2M 903
71 DOMBECK Nicolas 01:28:30 SEM - M 31 SEM 928
72 PIVET leo 01:28:52 ESM - M 5 ESM 981
73 ROBERT ERIC 01:28:56 V1M - M 21 V1M 1563
74 KOYTCHA Salim 01:29:38 SEM - M 32 SEM 959
75 OULIA MIMOSE 01:30:23 V2F - F 3 V2F 1562
76 BAUDON NICOLAS 01:30:51 V1M DENIV M 22 V1M 910
77 BULIN NOEL 01:31:09 V1M - M 23 V1M 918
78 GABIOU MARIE JACQUELIN 01:31:13 V2F CSSDA F 4 V2F 940
79 HOARAU MICHELLE 01:32:21 SEF CAPOSS F 2 SEF 1556
80 BOURGUIGNON CHRISTELLE 01:32:23 V1F - F 2 V1F 916
81 BOURGUIGNON LANDRY 01:33:02 V1M - M 24 V1M 917
82 PIVET Julien 01:33:17 SEM - M 33 SEM 980
83 POIGNART FRANCOIS XAVIER 01:33:21 V1M - M 25 V1M 1571
84 FONTAINE Fredo 01:34:01 SEM - M 34 SEM 937
85 PERDRIEL VAISSIeRE Florent 01:34:02 SEM - M 35 SEM 979
86 HOAREAU PATRICE 01:35:36 SEM C.A.S.S. M 36 SEM 1597
87 GASTRIN ALANNE 01:35:37 JUM - M 1 JUM 1488
88 LORIN Axel 01:35:58 V2M - M 13 V2M 1520
89 MAEDER Christian 01:36:21 V2M - M 14 V2M 965
90 JUNON jean raymond 01:36:50 V2M - M 15 V2M 957
91 DERUISSEAUX EMMANUEL 01:37:12 SEM - M 37 SEM 1577
92 LAGOURDE Jacob 01:37:14 V1M - M 26 V1M 1516
93 VAITILINGOM Philippe 01:37:14 V2M - M 16 V2M 1514
94 GILLOUIN VIRGINIE 01:37:24 SEF - F 3 SEF 946
95 RIVIERE JEAN CEYLO 01:38:11 V2M - M 17 V2M 1590
96 BOUDOC JEAN RENE 01:38:47 V2M - M 18 V2M 1575
97 MARTIN GIOVANNI 01:38:47 SEM - M 38 SEM 1576
98 FONTAINE CORINNE 01:38:51 V1F - F 3 V1F 936
99 BERTHOLIER VALERIE GAELLE 01:39:36 SEF - F 4 SEF 1509
100 DORO Yannick 01:39:44 V1M - M 27 V1M 1513
101 VITOU pauline 01:39:44 SEF - F 5 SEF 997
102 LAURET JEAN JACQUES 01:39:48 V1M USPGA M 28 V1M 960
103 AUGUSTINE NAYABOURY Marie Edmee 01:40:09 V2F - F 5 V2F 906
104 SINALATCHIMY SUZETTE 01:40:23 V1F ACBP F 4 V1F 987
105 ROYER JEAN PHILIPPE 01:40:23 V2M ACBP M 19 V2M 985
106 FLORUS JEAN FRANCOIS 01:41:55 SEM - M 39 SEM 935
107 AH FAT INGRID 01:42:05 SEF RUN ODYSSEA F 6 SEF 902
108 ROUSSEAU Charles 01:42:09 SEM - M 40 SEM 984
109 RIVIERE JEANNINE 01:42:11 V1F - F 5 V1F 983
110 DRONZIN Jean Claude 01:42:22 V2M - M 20 V2M 1519
111 BAILLIF ROSY 01:42:47 V1M - M 29 V1M 907
112 BRIERE GREGORY 01:44:26 SEM - M 41 SEM 1578
113 CALIMOUTOU NADINE 01:44:28 V1F CAPOSS F 6 V1F 1524
114 CADET SONIA 01:45:32 V2F - F 6 V2F 920
115 FELD ROMAIN 01:46:35 JUM - M 2 JUM 1486
116 COULON Nicolas 01:46:39 SEM - M 42 SEM 924
117 MARAALY frederic 01:46:51 V1M - M 30 V1M 968
118 JUVENAL SYLVIE 01:47:17 V1F - F 7 V1F 958
119 BOUCHER SOPHIE 01:47:28 V1F - F 8 V1F 914
120 HAPOLD NELLY 01:47:38 V1F CAPOSS F 9 V1F 862
121 HOAREAU Nicolas 01:47:50 SEM - M 43 SEM 951
122 BIGOT LUCIE THERESE 01:48:30 V3M - M 1 V3M 1510
123 ADOLPHE SIMON 01:49:59 V3M - M 2 V3M 901
124 MORNET Christophe 01:50:07 SEM - M 44 SEM 1522
125 LALLEMAND JOHN ROSS 01:50:16 SEM - M 45 SEM 1581
126 HOAREAU BEATRICE 01:51:57 V1F - F 10 V1F 1595
127 IMATASSE JEAN SEBASTIEN 01:55:03 SEM - M 46 SEM 954
128 TESTON eric 01:55:20 V2M - M 21 V2M 990
129 LOCATE HAUSMANN 01:55:36 V2M CSSDA M 22 V2M 1602
130 HUET INGRID 02:03:19 SEF - F 7 SEF 1600
131 BAILLIF Sandra Marie Christine 02:03:20 V1F - F 11 V1F 908
132 VERGOZ SYLVIE 02:07:42 V1F - F 12 V1F 994
133 BOUCHER ARMELLE 02:07:42 V1F - F 13 V1F 913
134 BAILLIF VINCENT 02:10:18 SEM - M 47 SEM 1582


ReferencementCe site est listé dans la catégorie Sport : Sports extrêmes Dictionnaire
| Accueil | La Réunion  Vue du ciel | Météo | Cyclones | Volcan | Cirques de Mafate , Cilaos , Salazie | Photos Randonnées | Randonnées Réunion: Randos Espiègle , Courses montagne | Diagonale des Fous |  Marathon des Sables | Voyages Les stats du site | Fonds écran | Plan du site | Blog de runraid | Galerie photos Sport Réunion |